Location: Unspecified
(48.2082°N, 0.0000°E)
Time: 06:53:47
(UTC+00:00)

S-56A Canister/Altair - Pass Details

Date: 27 June 2019
Orbit: 633 x 2499 km, 38.9° (Epoch: 13 October)

Event Time Altitude Azimuth Distance (km) Brightness Sun altitude
Rises 16:57:34 0° 261° (W) 5,135 12.9 27.9°
Reaches altitude 10° 17:01:37 10° 256° (WSW) 3,831 12.5 27.2°
Maximum altitude 17:10:10 41° 190° (S) 1,650 9.5 25.8°
Drops below altitude 10° 17:16:02 10° 122° (ESE) 2,622 9.8 24.8°
Sets 17:18:19 0° 114° (ESE) 3,387 10.3 24.4°
